Valparaiso, FL

5:11 PM CDT on September 20, 2017 (GMT -0500)
Eglin Air Force Base

Weather History for KVPS - March, 2013

Change the Weather History Date:

Saturday, March 2, 2013

  Actual Average Record
Temperature  
Mean Temperature 40 °F -  
Max Temperature 51 °F 66 °F 80 °F (1955)
Min Temperature 29 °F 42 °F 21 °F (1986)
Degree Days  
Heating Degree Days 25    
Moisture  
Dew Point 24 °F    
Average Humidity 53    
Maximum Humidity 88    
Minimum Humidity 31    
Precipitation  
Precipitation 0.00 in - - ()
Sea Level Pressure  
Sea Level Pressure 30.13 in    
Wind  
Wind Speed 10 mph (NW)    
Max Wind Speed 20 mph    
Max Gust Speed 28 mph    
Visibility 10 miles    
Events      
Averages and records for this station are not official NWS values.
T = Trace of Precipitation, MM = Missing Value Source: NWS Daily Summary

Daily Weather History Graph

Daily Weather History Graph

Search for Another Location

Airport or City:

Trip Planner

Search our weather history database for the weather conditions in past years. The results will help you decide how hot, cold, wet, or windy it might be!

Date:

Astronomy

Mar. 02, 2013 Rise Set
Actual Time 6:10 AM CST 5:45 PM CST
Civil Twilight 5:46 AM CST 6:09 PM CST
Nautical Twilight 5:18 AM CST 6:37 PM CST
Astronomical Twilight 4:51 AM CST 7:05 PM CST
Moon 10:58 PM CST (3/2) 9:03 AM CST (3/2)
Length of Visible Light 12h 23m
Length of Day
11h 34m
Waning Gibbous, 74% of the Moon is Illuminated
Mar 2
Waning Gibbous
Mar 4
Last Quarter
Mar 11
New
Mar 19
First Quarter
Mar 27
Full

Hourly Weather History & Observations

Time (CST) Temp. Windchill Dew Point Humidity Pressure Visibility Wind Dir Wind Speed Gust Speed Precip Events Conditions
12:55 AM 38.8 °F 33.2 °F 29.1 °F 68% 30.14 in 10.0 mi NNW 8.1 mph - N/A   Clear
1:55 AM 36.0 °F 31.1 °F 28.2 °F 73% 30.13 in 10.0 mi NW 5.8 mph - N/A   Clear
2:55 AM 34.9 °F 32.0 °F 27.7 °F 75% 30.11 in 10.0 mi WNW 3.5 mph - N/A   Clear
3:55 AM 33.3 °F 28.9 °F 27.5 °F 79% 30.13 in 10.0 mi West 4.6 mph - N/A   Clear
4:55 AM 30.6 °F 24.7 °F 26.8 °F 86% 30.13 in 10.0 mi WNW 5.8 mph - N/A   Clear
5:55 AM 29.3 °F 23.2 °F 26.1 °F 88% 30.13 in 10.0 mi WNW 5.8 mph - N/A   Clear
6:55 AM 33.1 °F 27.7 °F 28.9 °F 85% 30.15 in 10.0 mi WNW 5.8 mph - N/A   Partly Cloudy
7:55 AM 39.0 °F 31.8 °F 27.7 °F 64% 30.18 in 10.0 mi NW 11.5 mph - N/A   Clear
8:55 AM 42.6 °F 35.6 °F 23.7 °F 47% 30.17 in 10.0 mi NW 13.8 mph 20.7 mph N/A   Partly Cloudy
9:55 AM 45.5 °F 38.3 °F 22.8 °F 41% 30.16 in 10.0 mi WNW 17.3 mph - N/A   Partly Cloudy
10:55 AM 48.2 °F - 21.7 °F 35% 30.15 in 10.0 mi NW 19.6 mph 25.3 mph N/A   Partly Cloudy
11:55 AM 49.3 °F - 22.3 °F 35% 30.10 in 10.0 mi WNW 17.3 mph 26.5 mph N/A   Partly Cloudy
12:55 PM 51.1 °F - 21.6 °F 31% 30.09 in 10.0 mi WNW 16.1 mph 27.6 mph N/A   Scattered Clouds
1:55 PM 51.1 °F - 21.6 °F 31% 30.06 in 7.0 mi WNW 17.3 mph 24.2 mph N/A   Scattered Clouds
2:55 PM 49.6 °F - 21.4 °F 33% 30.06 in 10.0 mi NW 15.0 mph 26.5 mph N/A   Scattered Clouds
3:55 PM 47.1 °F - 22.5 °F 38% 30.07 in 10.0 mi NW 15.0 mph - N/A   Scattered Clouds
4:55 PM 44.6 °F 38.1 °F 23.2 °F 43% 30.09 in 10.0 mi NNW 13.8 mph 25.3 mph N/A   Mostly Cloudy
5:55 PM 43.0 °F 35.4 °F 22.3 °F 44% 30.12 in 10.0 mi NNW 16.1 mph - N/A   Mostly Cloudy
6:55 PM 42.1 °F 34.9 °F 23.4 °F 48% 30.13 in 10.0 mi NNW 13.8 mph 23.0 mph N/A   Overcast
7:03 PM 42.8 °F 36.6 °F 23.0 °F 46% 30.13 in 10.0 mi NNW 11.5 mph 19.6 mph N/A   Overcast
7:55 PM 41.4 °F 34.7 °F 24.3 °F 51% 30.16 in 10.0 mi North 11.5 mph - N/A   Overcast
8:55 PM 40.8 °F 33.7 °F 23.5 °F 50% 30.17 in 10.0 mi NNW 12.7 mph - N/A   Overcast
9:55 PM 40.5 °F 35.1 °F 23.4 °F 51% 30.17 in 10.0 mi NNW 8.1 mph - N/A   Overcast
10:55 PM 39.7 °F 31.9 °F 22.6 °F 50% 30.16 in 10.0 mi NNW 13.8 mph 20.7 mph N/A   Overcast
11:55 PM 39.4 °F 32.7 °F 19.8 °F 45% 30.17 in 10.0 mi NW 10.4 mph - N/A   Overcast